Time,TemperatureF,DewpointF,PressureIn,WindDirection,WindDirectionDegrees,WindSpeedMPH,WindSpeedGustMPH,Humidity,HourlyPrecipIn,Conditions,Clouds,dailyrainin,SoftwareType,DateUTC
2013-04-02 00:03:00,66.0,65.0,30.05,West,259,0.0,0.0,95,0.00,,,0.00,,2013-04-02 04:03:00,
2013-04-02 00:13:00,66.0,65.0,30.05,West,259,0.0,0.0,95,0.00,,,0.00,,2013-04-02 04:13:00,
2013-04-02 00:23:00,66.0,65.0,30.05,West,259,0.0,0.0,95,0.00,,,0.00,,2013-04-02 04:23:00,
2013-04-02 00:33:00,65.0,64.0,30.05,West,259,0.0,0.0,95,0.00,,,0.00,,2013-04-02 04:33:00,
2013-04-02 00:43:00,65.0,64.0,30.05,West,259,0.0,0.0,95,0.00,,,0.00,,2013-04-02 04:43:00,
2013-04-02 00:53:00,65.0,64.0,30.04,West,259,0.0,0.0,95,0.00,,,0.00,,2013-04-02 04:53:00,
2013-04-02 01:02:00,65.0,64.0,30.04,West,259,0.0,0.0,96,0.00,,,0.00,,2013-04-02 05:02:00,
2013-04-02 01:12:00,65.0,64.0,30.04,West,259,0.0,0.0,96,0.00,,,0.00,,2013-04-02 05:12:00,
2013-04-02 01:22:00,65.0,64.0,30.04,West,259,0.0,0.0,96,0.00,,,0.00,,2013-04-02 05:22:00,
2013-04-02 01:32:00,65.0,64.0,30.04,West,259,0.0,0.0,96,0.00,,,0.00,,2013-04-02 05:32:00,
2013-04-02 01:43:00,65.0,64.0,30.04,West,259,0.0,0.0,96,0.00,,,0.00,,2013-04-02 05:43:00,
2013-04-02 01:52:00,64.0,63.0,30.03,West,259,0.0,0.0,96,0.00,,,0.00,,2013-04-02 05:52:00,
2013-04-02 02:02:00,65.0,64.0,30.04,West,259,0.0,0.0,97,0.00,,,0.00,,2013-04-02 06:02:00,
2013-04-02 02:12:00,65.0,64.0,30.04,West,259,0.0,0.0,97,0.00,,,0.00,,2013-04-02 06:12:00,
2013-04-02 02:22:00,64.0,63.0,30.03,West,259,0.0,0.0,96,0.00,,,0.00,,2013-04-02 06:22:00,
2013-04-02 02:32:00,64.0,63.0,30.03,West,259,0.0,0.0,96,0.00,,,0.00,,2013-04-02 06:32:00,
2013-04-02 02:42:00,64.0,63.0,30.03,West,259,0.0,0.0,96,0.00,,,0.00,,2013-04-02 06:42:00,
2013-04-02 02:52:00,64.0,63.0,30.03,West,259,0.0,0.0,97,0.00,,,0.00,,2013-04-02 06:52:00,
2013-04-02 03:02:00,64.0,63.0,30.03,West,259,0.0,0.0,97,0.00,,,0.00,,2013-04-02 07:02:00,
2013-04-02 03:13:00,64.0,63.0,30.03,West,259,0.0,0.0,97,0.00,,,0.00,,2013-04-02 07:13:00,
2013-04-02 03:22:00,64.0,63.0,30.03,West,259,0.0,0.0,96,0.00,,,0.00,,2013-04-02 07:22:00,
2013-04-02 03:32:00,63.0,62.0,30.03,West,259,0.0,0.0,96,0.00,,,0.00,,2013-04-02 07:32:00,
2013-04-02 03:43:00,63.0,62.0,30.03,West,259,0.0,0.0,96,0.00,,,0.00,,2013-04-02 07:43:00,
2013-04-02 03:53:00,64.0,63.0,30.03,West,259,0.0,0.0,97,0.00,,,0.00,,2013-04-02 07:53:00,
2013-04-02 04:02:00,64.0,63.0,30.03,West,259,0.0,0.0,97,0.00,,,0.00,,2013-04-02 08:02:00,
2013-04-02 04:13:00,64.0,63.0,30.03,West,259,0.0,0.0,97,0.00,,,0.00,,2013-04-02 08:13:00,
2013-04-02 04:22:00,63.0,62.0,30.03,West,259,0.0,0.0,97,0.00,,,0.00,,2013-04-02 08:22:00,
2013-04-02 04:32:00,63.0,62.0,30.03,West,259,0.0,0.0,97,0.00,,,0.00,,2013-04-02 08:32:00,
2013-04-02 04:42:00,63.0,62.0,30.03,West,259,0.0,0.0,97,0.00,,,0.00,,2013-04-02 08:42:00,
2013-04-02 04:52:00,62.0,61.0,30.03,West,259,0.0,0.0,97,0.00,,,0.00,,2013-04-02 08:52:00,
2013-04-02 05:02:00,62.0,61.0,30.04,West,259,0.0,0.0,97,0.00,,,0.00,,2013-04-02 09:02:00,
2013-04-02 05:12:00,62.0,61.0,30.04,West,259,0.0,0.0,97,0.00,,,0.00,,2013-04-02 09:12:00,
2013-04-02 05:22:00,62.0,61.0,30.04,West,259,0.0,0.0,97,0.00,,,0.00,,2013-04-02 09:22:00,
2013-04-02 05:32:00,61.0,60.0,30.04,West,259,0.0,0.0,97,0.00,,,0.00,,2013-04-02 09:32:00,
2013-04-02 05:43:00,61.0,60.0,30.04,West,259,0.0,0.0,97,0.00,,,0.00,,2013-04-02 09:43:00,
2013-04-02 05:53:00,62.0,61.0,30.04,West,259,0.0,0.0,97,0.00,,,0.00,,2013-04-02 09:53:00,
2013-04-02 06:03:00,62.0,61.0,30.04,West,259,0.0,0.0,97,0.00,,,0.00,,2013-04-02 10:03:00,
2013-04-02 06:13:00,62.0,61.0,30.04,West,259,0.0,0.0,97,0.00,,,0.00,,2013-04-02 10:13:00,
2013-04-02 06:24:00,62.0,61.0,30.04,West,259,0.0,0.0,97,0.00,,,0.00,,2013-04-02 10:24:00,
2013-04-02 06:33:00,62.0,61.0,30.04,West,259,0.0,0.0,97,0.00,,,0.00,,2013-04-02 10:33:00,
2013-04-02 06:42:00,62.0,61.0,30.04,West,259,0.0,0.0,97,0.00,,,0.00,,2013-04-02 10:42:00,
2013-04-02 06:53:00,62.0,61.0,30.05,West,259,0.0,0.0,97,0.00,,,0.00,,2013-04-02 10:53:00,
2013-04-02 07:02:00,62.0,61.0,30.05,West,259,0.0,0.0,97,0.00,,,0.00,,2013-04-02 11:02:00,
2013-04-02 07:12:00,62.0,61.0,30.05,West,259,0.0,0.0,97,0.00,,,0.00,,2013-04-02 11:12:00,
2013-04-02 07:22:00,62.0,61.0,30.06,West,259,0.0,0.0,97,0.00,,,0.00,,2013-04-02 11:22:00,
2013-04-02 07:33:00,61.0,60.0,30.07,West,259,0.0,0.0,97,0.00,,,0.00,,2013-04-02 11:33:00,
2013-04-02 07:43:00,61.0,60.0,30.07,West,259,0.0,0.0,97,0.00,,,0.00,,2013-04-02 11:43:00,
2013-04-02 07:53:00,62.0,61.0,30.08,West,259,0.0,0.0,98,0.00,,,0.00,,2013-04-02 11:53:00,
2013-04-02 08:02:00,61.0,60.0,30.09,West,259,0.0,0.0,97,0.00,,,0.00,,2013-04-02 12:02:00,
2013-04-02 08:12:00,61.0,60.0,30.09,West,259,0.0,0.0,97,0.00,,,0.00,,2013-04-02 12:12:00,
2013-04-02 08:23:00,62.0,61.0,30.09,West,259,0.0,0.0,98,0.00,,,0.00,,2013-04-02 12:23:00,
2013-04-02 08:32:00,62.0,61.0,30.10,West,259,0.0,0.0,98,0.00,,,0.00,,2013-04-02 12:32:00,
2013-04-02 08:42:00,62.0,61.0,30.10,West,259,0.0,0.0,98,0.00,,,0.00,,2013-04-02 12:42:00,
2013-04-02 08:53:00,63.0,62.0,30.09,West,259,0.0,0.0,98,0.00,,,0.00,,2013-04-02 12:53:00,
2013-04-02 09:02:00,64.0,63.0,30.10,West,259,0.0,0.0,98,0.00,,,0.00,,2013-04-02 13:02:00,
2013-04-02 09:12:00,64.0,63.0,30.10,West,259,0.0,0.0,98,0.00,,,0.00,,2013-04-02 13:12:00,
2013-04-02 09:23:00,65.0,64.0,30.10,WSW,257,0.0,0.0,98,0.00,,,0.00,,2013-04-02 13:23:00,
2013-04-02 09:33:00,65.0,64.0,30.11,West,273,0.0,0.0,97,0.00,,,0.00,,2013-04-02 13:33:00,
2013-04-02 09:42:00,65.0,64.0,30.11,West,273,0.0,0.0,97,0.00,,,0.00,,2013-04-02 13:42:00,
2013-04-02 09:52:00,66.0,65.0,30.10,NW,319,0.0,0.0,95,0.00,,,0.00,,2013-04-02 13:52:00,
2013-04-02 10:02:00,68.0,65.0,30.11,West,259,0.0,0.0,91,0.00,,,0.00,,2013-04-02 14:02:00,
2013-04-02 10:12:00,68.0,65.0,30.11,West,259,0.0,0.0,91,0.00,,,0.00,,2013-04-02 14:12:00,
2013-04-02 10:23:00,69.0,65.0,30.11,West,274,0.0,0.0,86,0.00,,,0.00,,2013-04-02 14:23:00,
2013-04-02 10:32:00,70.0,65.0,30.11,WSW,257,0.0,0.0,83,0.00,,,0.00,,2013-04-02 14:32:00,
2013-04-02 10:42:00,70.0,65.0,30.11,WSW,257,0.0,0.0,83,0.00,,,0.00,,2013-04-02 14:42:00,
2013-04-02 10:52:00,71.0,64.0,30.12,WNW,295,0.0,0.0,79,0.00,,,0.00,,2013-04-02 14:52:00,
2013-04-02 11:02:00,72.0,64.0,30.12,North,5,0.0,0.0,76,0.00,,,0.00,,2013-04-02 15:02:00,
2013-04-02 11:12:00,72.0,64.0,30.12,North,5,0.0,0.0,76,0.00,,,0.00,,2013-04-02 15:12:00,
2013-04-02 11:22:00,73.0,65.0,30.12,North,358,0.0,0.0,76,0.00,,,0.00,,2013-04-02 15:22:00,
2013-04-02 11:33:00,74.0,65.0,30.11,SSW,194,0.0,2.0,73,0.00,,,0.00,,2013-04-02 15:33:00,
2013-04-02 11:58:00,75.0,65.0,30.11,WNW,287,0.0,2.0,71,0.00,,,0.00,,2013-04-02 15:58:00,
2013-04-02 12:04:00,76.0,63.0,30.11,West,274,1.0,4.0,64,0.00,,,0.00,,2013-04-02 16:04:00,
2013-04-02 12:13:00,76.0,63.0,30.11,West,274,1.0,4.0,64,0.00,,,0.00,,2013-04-02 16:13:00,
2013-04-02 12:37:00,78.0,65.0,30.11,West,269,0.0,6.0,65,0.00,,,0.00,,2013-04-02 16:37:00,
2013-04-02 12:44:00,78.0,65.0,30.11,West,269,0.0,6.0,65,0.00,,,0.00,,2013-04-02 16:44:00,
2013-04-02 12:53:00,77.0,66.0,30.11,SW,231,1.0,7.0,68,0.00,,,0.00,,2013-04-02 16:53:00,
2013-04-02 13:05:00,77.0,65.0,30.10,WSW,239,1.0,5.0,67,0.00,,,0.00,,2013-04-02 17:05:00,
2013-04-02 13:13:00,77.0,65.0,30.10,WSW,239,1.0,5.0,67,0.00,,,0.00,,2013-04-02 17:13:00,
2013-04-02 13:25:00,77.0,64.0,30.10,SSW,192,3.0,6.0,65,0.00,,,0.00,,2013-04-02 17:25:00,
2013-04-02 13:35:00,78.0,65.0,30.09,WSW,252,2.0,4.0,64,0.00,,,0.00,,2013-04-02 17:35:00,
2013-04-02 13:43:00,78.0,65.0,30.09,WSW,252,2.0,4.0,64,0.00,,,0.00,,2013-04-02 17:43:00,
2013-04-02 13:54:00,78.0,66.0,30.09,WSW,250,3.0,6.0,66,0.00,,,0.00,,2013-04-02 17:54:00,
2013-04-02 14:04:00,78.0,65.0,30.08,West,271,2.0,7.0,64,0.00,,,0.00,,2013-04-02 18:04:00,
2013-04-02 14:13:00,78.0,65.0,30.08,West,271,2.0,7.0,64,0.00,,,0.00,,2013-04-02 18:13:00,
2013-04-02 14:23:00,79.0,65.0,30.08,West,274,1.0,6.0,62,0.00,,,0.00,,2013-04-02 18:23:00,
2013-04-02 14:34:00,79.0,65.0,30.07,West,273,2.0,7.0,62,0.00,,,0.00,,2013-04-02 18:34:00,
2013-04-02 14:43:00,79.0,65.0,30.07,West,273,2.0,7.0,62,0.00,,,0.00,,2013-04-02 18:43:00,
2013-04-02 14:57:00,79.0,65.0,30.07,WNW,283,3.0,7.0,62,0.00,,,0.00,,2013-04-02 18:57:00,
2013-04-02 15:03:00,78.0,64.0,30.06,WNW,282,2.0,7.0,62,0.00,,,0.00,,2013-04-02 19:03:00,
2013-04-02 15:13:00,78.0,64.0,30.06,WNW,282,2.0,7.0,62,0.00,,,0.00,,2013-04-02 19:13:00,
2013-04-02 15:23:00,77.0,63.0,30.06,WSW,252,3.0,6.0,63,0.00,,,0.00,,2013-04-02 19:23:00,
2013-04-02 15:34:00,77.0,63.0,30.05,West,278,3.0,5.0,61,0.00,,,0.00,,2013-04-02 19:34:00,
2013-04-02 15:45:00,77.0,63.0,30.05,West,278,3.0,5.0,61,0.00,,,0.00,,2013-04-02 19:45:00,
2013-04-02 15:57:00,77.0,64.0,30.05,South,191,2.0,8.0,65,0.00,,,0.00,,2013-04-02 19:57:00,
2013-04-02 16:03:00,77.0,64.0,30.05,West,278,2.0,8.0,64,0.00,,,0.00,,2013-04-02 20:03:00,
2013-04-02 16:14:00,77.0,64.0,30.05,West,278,2.0,8.0,64,0.00,,,0.00,,2013-04-02 20:14:00,
2013-04-02 16:23:00,76.0,63.0,30.05,WSW,237,2.0,6.0,65,0.00,,,0.00,,2013-04-02 20:23:00,
2013-04-02 16:33:00,76.0,64.0,30.05,West,265,2.0,5.0,66,0.00,,,0.00,,2013-04-02 20:33:00,
2013-04-02 16:44:00,76.0,64.0,30.05,West,265,2.0,5.0,66,0.00,,,0.00,,2013-04-02 20:44:00,
2013-04-02 16:55:00,76.0,64.0,30.05,West,265,2.0,5.0,66,0.00,,,0.00,,2013-04-02 20:55:00,
2013-04-02 17:04:00,76.0,64.0,30.04,West,279,2.0,6.0,66,0.00,,,0.00,,2013-04-02 21:04:00,
2013-04-02 17:13:00,76.0,64.0,30.04,West,279,2.0,6.0,66,0.00,,,0.00,,2013-04-02 21:13:00,
2013-04-02 17:23:00,76.0,62.0,30.05,WSW,249,3.0,7.0,63,0.00,,,0.00,,2013-04-02 21:23:00,
2013-04-02 17:35:00,75.0,63.0,30.04,WSW,248,2.0,7.0,67,0.00,,,0.00,,2013-04-02 21:35:00,
2013-04-02 17:44:00,75.0,63.0,30.04,WSW,248,2.0,7.0,67,0.00,,,0.00,,2013-04-02 21:44:00,
2013-04-02 17:56:00,75.0,64.0,30.04,WSW,248,2.0,5.0,68,0.00,,,0.00,,2013-04-02 21:56:00,
2013-04-02 18:14:00,75.0,65.0,30.04,SW,226,2.0,6.0,70,0.00,,,0.00,,2013-04-02 22:14:00,
2013-04-02 18:24:00,74.0,64.0,30.05,SW,215,1.0,5.0,72,0.00,,,0.00,,2013-04-02 22:24:00,
2013-04-02 18:33:00,74.0,64.0,30.05,WSW,245,0.0,5.0,72,0.00,,,0.00,,2013-04-02 22:33:00,
2013-04-02 18:43:00,74.0,64.0,30.05,WSW,245,0.0,5.0,72,0.00,,,0.00,,2013-04-02 22:43:00,
2013-04-02 18:54:00,73.0,64.0,30.05,West,262,2.0,5.0,73,0.00,,,0.00,,2013-04-02 22:54:00,
2013-04-02 19:03:00,72.0,63.0,30.05,West,269,0.0,3.0,73,0.00,,,0.00,,2013-04-02 23:03:00,
2013-04-02 19:13:00,72.0,63.0,30.05,West,269,0.0,3.0,73,0.00,,,0.00,,2013-04-02 23:13:00,
2013-04-02 19:23:00,72.0,62.0,30.05,WSW,241,0.0,3.0,72,0.00,,,0.00,,2013-04-02 23:23:00,
2013-04-02 19:35:00,71.0,62.0,30.04,West,276,0.0,2.0,72,0.00,,,0.00,,2013-04-02 23:35:00,
2013-04-02 19:43:00,71.0,62.0,30.04,West,276,0.0,2.0,72,0.00,,,0.00,,2013-04-02 23:43:00,
2013-04-02 19:54:00,70.0,61.0,30.05,WSW,250,0.0,0.0,73,0.00,,,0.00,,2013-04-02 23:54:00,
2013-04-02 20:04:00,70.0,61.0,30.05,WSW,252,0.0,0.0,74,0.00,,,0.00,,2013-04-03 00:04:00,
2013-04-02 20:13:00,70.0,61.0,30.05,WSW,252,0.0,0.0,74,0.00,,,0.00,,2013-04-03 00:13:00,
2013-04-02 20:25:00,69.0,61.0,30.06,WSW,255,0.0,0.0,75,0.00,,,0.00,,2013-04-03 00:25:00,
2013-04-02 20:47:00,68.0,61.0,30.05,West,259,0.0,0.0,79,0.00,,,0.00,,2013-04-03 00:47:00,
2013-04-02 20:57:00,68.0,63.0,30.06,West,262,0.0,0.0,84,0.00,,,0.00,,2013-04-03 00:57:00,
2013-04-02 21:04:00,67.0,62.0,30.06,West,262,0.0,0.0,85,0.00,,,0.00,,2013-04-03 01:04:00,
2013-04-02 21:13:00,67.0,62.0,30.06,West,262,0.0,0.0,85,0.00,,,0.00,,2013-04-03 01:13:00,
2013-04-02 21:23:00,66.0,62.0,30.06,West,262,0.0,0.0,87,0.00,,,0.00,,2013-04-03 01:23:00,
2013-04-02 21:33:00,66.0,62.0,30.06,West,262,0.0,0.0,88,0.00,,,0.00,,2013-04-03 01:33:00,
2013-04-02 21:42:00,66.0,62.0,30.06,West,262,0.0,0.0,88,0.00,,,0.00,,2013-04-03 01:42:00,
2013-04-02 21:53:00,65.0,62.0,30.06,West,262,0.0,0.0,89,0.00,,,0.00,,2013-04-03 01:53:00,
2013-04-02 22:03:00,65.0,62.0,30.07,West,262,0.0,0.0,89,0.00,,,0.00,,2013-04-03 02:03:00,
2013-04-02 22:13:00,65.0,62.0,30.07,West,262,0.0,0.0,89,0.00,,,0.00,,2013-04-03 02:13:00,
2013-04-02 22:34:00,64.0,61.0,30.06,West,262,0.0,0.0,91,0.00,,,0.00,,2013-04-03 02:34:00,
2013-04-02 22:44:00,64.0,61.0,30.06,West,262,0.0,0.0,91,0.00,,,0.00,,2013-04-03 02:44:00,
2013-04-02 22:53:00,64.0,62.0,30.08,West,262,0.0,0.0,92,0.00,,,0.00,,2013-04-03 02:53:00,
2013-04-02 23:05:00,64.0,62.0,30.09,East,79,0.0,0.0,92,0.00,,,0.00,,2013-04-03 03:05:00,
2013-04-02 23:14:00,64.0,62.0,30.09,East,79,0.0,0.0,92,0.00,,,0.00,,2013-04-03 03:14:00,
2013-04-02 23:23:00,64.0,62.0,30.09,East,79,0.0,0.0,92,0.00,,,0.00,,2013-04-03 03:23:00,
2013-04-02 23:37:00,64.0,62.0,30.10,East,79,0.0,0.0,92,0.00,,,0.00,,2013-04-03 03:37:00,
2013-04-02 23:44:00,64.0,62.0,30.10,East,79,0.0,0.0,92,0.00,,,0.00,,2013-04-03 03:44:00,
2013-04-02 23:54:00,64.0,62.0,30.10,ENE,77,0.0,0.0,93,0.00,,,0.00,,2013-04-03 03:54:00,